www.pogodaiklimat.ru

Погода и климат >> Архив погоды >> Украина >> Звенигородка


ПОГОДА в Звенигородке

  • Прогноз погоды в Звенигородке
  • Монитор погоды в Звенигородке

АРХИВ ПОГОДЫ в Звенигородке

Время (UTC), дата Ветер
(напр.,м/с)
 
Видим.   Явления Облачность Т
(С)
Тd
(С)
f
(%)
Тe
(С)
Тes
(С)
Комфортность P
(гПа)
Po
(гПа)
Тmin
(С)
Tmax
(С)
R
(мм)
R24
(мм)
S
(см)
09 11.07 СЗ 1 10 км 9/8 660 м
[Cb cap Ac und]
+17.3 +10.4 64 +18 +18 1007.0 981.9
12 11.07 штиль 0 10 км 8/8 660 м
[Cb cap]
+19.5 +9.1 51 +20 +24 1006.2 981.3
15 11.07 З 2 10 км 8/6 660 м
[Cb cap Ac und]
+18.1 +9.9 59 +19 +20 1006.7 981.6
18 11.07 СЗ 1 10 км 8/8 660 м
[Cb cap]
+17.0 +9.9 63 +18 +18 1007.3 982.1 +20.2
21 11.07 З 1 4000 м 1/1 600 м
[Sc]
+13.9 +10.3 79 +14 +14 1008.0 982.6
00 12.07 З 1 4000 м ясно +12.3 +9.3 82 +12 +12 1008.5 982.9
03 12.07 ЮЗ 1 10 км 1/0
[Ac trans]
+10.6 +8.8 89 +10 +11 1008.8 983.0
06 12.07 З 1 10 км 1/0
[Ci fib]
+16.5 +11.4 72 +17 +27 1009.0 983.8 +10.4
09 12.07 СВ 2 10 км 8/6 700 м
[Cb cap Ac trans]
+20.9 +10.1 50 +23 +23 комфорт 1008.0 983.2
12 12.07 С 4 10 км гроза без осадков 9/8 660 м
[Cb cap Ac trans]
+21.4 +9.0 45 +23 +23 комфорт 1008.0 983.2
15 12.07 З 2 10 км гроза, ливневой дождь 9/8 630 м
[Cb cap Ac trans Ci fib]
+17.8 +13.1 74 +18 +18 1009.0 983.9
18 12.07 СЗ 1 10 км {гроза, ливн. осадки} 3/0
[Ac trans Ci fib]
+16.8 +14.4 86 +18 +18 1009.0 983.8 +22.7 4
21 12.07 СЗ 1 4000 м 4/0
[Ac trans]
+13.0 +11.1 88 +13 +13 1010.0 984.5
00 13.07 З 1 4000 м ясно +11.9 +10.0 88 +12 +12 1010.0 984.4
03 13.07 З 1 10 км ясно +11.1 +9.4 89 +11 +11 1010.0 984.3
06 13.07 С 2 10 км ясно +16.3 +11.2 72 +16 +24 1010.0 984.7 +10.3
09 13.07 СВ 2 10 км 8/8 700 м
[Cb cap]
+21.4 +10.8 51 +23 +23 комфорт 1009.0 984.2
12 13.07 штиль 0 10 км {гроза, ливн. осадки} 8/8 700 м
[Cb cap Ac trans]
+21.4 +10.8 51 +23 +23 комфорт 1009.0 984.2 0.7
15 13.07 Ю 1 10 км 4/3 600 м
[Cb cap Ac trans]
+21.9 +9.4 45 +23 +27 комфорт 1008.0 983.3
18 13.07 ЮЗ 2 10 км гроза без осадков 8/6 660 м
[Cb cap Ac trans Ci fib]
+18.2 +10.3 60 +19 +19 1010.0 984.9 +23.1 0.7
21 13.07 штиль 0 4000 м {гроза} 6/0
[Ac trans]
+14.8 +11.9 83 +15 +15 1010.0 984.6
00 14.07 штиль 0 4000 м дымка {гроза} 3/0
[Ac trans]
+12.6 +11.2 91 +12 +12 1010.0 984.4
03 14.07 штиль 0 4000 м дымка 6/0
[Ac trans Ci fib]
+11.7 +10.8 94 +11 +11 1010.0 984.3
06 14.07 СВ 1 10 км 8/0
[Ac trans]
+17.4 +12.5 73 +18 +18 1009.0 983.9 +10.3
09 14.07 СВ 1 10 км 8/3 600 м
[Cb cap Cs]
+23.2 +10.9 46 +25 +25 комфорт 1009.0 984.4
12 14.07 СЗ 2 10 км 8/5 600 м
[Cb cap Ci ing]
+25.8 +10.0 37 +27 +27 жарко 1007.0 982.6
15 14.07 СВ 3 10 км в посл. час гроза 8/6 660 м
[Cb cap Ac trans]
+21.1 +12.8 59 +23 +23 комфорт 1008.0 983.2
18 14.07 З 2 4000 м гроза, ливневой дождь 10/8 630 м
[Cb cap Ac und]
+14.8 +13.3 91 +14 +14 1010.0 984.6 +26.1 2
21 14.07 В 1 4000 м в посл. час ливневой дождь {гроза} 9/8 660 м
[Cb cap Ac trans]
+15.2 +13.7 91 +16 +16 1010.0 984.7
00 15.07 штиль 0 4000 м дымка {гроза, ливн. осадки} 8/0
[Ac trans]
+14.4 +13.3 93 +14 +14 1009.0 983.6 2
03 15.07 С 1 4000 м дымка 8/0
[Ac trans Ci fib]
+13.1 +12.5 96 +13 +13 1009.0 983.5
06 15.07 СВ 1 10 км 8/4 600 м
[Sc Ac trans Ci fib]
+18.3 +15.4 83 +20 +20 1009.0 984.0 +12.8 2
09 15.07 СВ 2 10 км 8/4 600 м
[Cb cap Ac trans Ci fib]
+22.5 +12.7 54 +25 +25 комфорт 1008.0 983.3
12 15.07 СЗ 2 10 км 6/3 600 м
[Cb cap Ac trans Ci fib]
+23.0 +11.4 48 +25 +31 комфорт 1008.0 983.4
15 15.07 С 3 10 км 8/4 600 м
[Cb cap Ac trans Ci fib]
+20.9 +15.9 73 +25 +25 комфорт 1008.0 983.2
18 15.07 СВ 1 10 км 9/6 660 м
[Cb cap Ac trans]
+19.1 +14.1 73 +21 +21 комфорт 1009.0 984.0 +23.5
21 15.07 СВ 1 4000 м 10/0
[Ac und]
+16.9 +13.6 81 +18 +18 1010.0 984.8
00 16.07 СВ 1 4000 м 6/0
[Ac trans]
+15.8 +13.1 84 +16 +16 1010.0 984.7
03 16.07 СЗ 2 10 км 3/0
[Ac trans]
+14.6 +12.6 88 +14 +14 1009.0 983.6
06 16.07 СЗ 2 10 км 3/3 600 м
[Cb cap]
+17.0 +13.7 81 +17 +23 1010.0 984.8 +14.5
09 16.07 СВ 2 10 км 6/6 720 м
[Cu med, cong]
+20.7 +10.8 53 +23 +30 комфорт 1009.0 984.1
12 16.07 С 2 10 км 8/8 750 м
[Cu med, cong]
+23.2 +10.3 44 +25 +25 комфорт 1008.0 983.4
15 16.07 штиль 0 10 км 8/8 720 м
[Cu med, cong]
+24.1 +9.3 39 +25 +25 комфорт 1008.0 983.4
18 16.07 С 2 10 км 3/0
[Ac trans]
+20.9 +11.2 54 +24 +24 комфорт 1008.0 983.2 +24.1
21 16.07 штиль 0 4000 м ясно +16.0 +10.7 71 +16 +16 1009.0 983.7
00 17.07 штиль 0 4000 м ясно +13.3 +10.7 84 +13 +13 1009.0 983.5
03 17.07 штиль 0 4000 м 3/0
[Ci fib]
+12.8 +10.2 84 +12 +13 1008.0 982.5
06 17.07 СВ 2 10 км 4/0
[Ac trans]
+18.7 +11.3 62 +20 +25 1008.0 983.0 +12.5
09 17.07 СЗ 2 10 км 10/8 630 м
[Cb cap Ac und]
+18.2 +10.8 62 +19 +19 1009.0 983.9
12 17.07 ЮЗ 3 10 км {ливн. осадки} 4/4 600 м
[Cb cap]
+21.1 +12.2 57 +23 +31 комфорт 1008.0 983.2 0.4
15 17.07 З 3 10 км 3 балла +23.6 +9.9 42 +25 +27 комфорт 1007.0 982.4
18 17.07 СЗ 4 10 км слаб. ливневой дождь 9/9 660 м
[Cb cap]
+17.3 +8.7 57 +17 +17 1009.0 983.8 +23.6 0.7
21 17.07 СЗ 1 4000 м ясно +12.5 +10.7 89 +12 +12 1009.0 983.4
00 18.07 СЗ 1 4000 м {ливн. осадки} ясно +11.8 +9.9 88 +12 +12 1010.0 984.3 0.3
03 18.07 СЗ 1 10 км ясно +10.0 +8.6 91 +9 +10 1010.0 984.2
06 18.07 З 2 10 км ясно +15.0 +10.6 75 +15 +22 1011.0 985.6 +9.8 0.3

 

Местоположение метеостанции Звенигородка (Черкасская область, Украина): широта 49.08 долгота 30.90 высота над уровнем моря 215 м.

В архиве по умолчанию представлена погода в Звенигородке за последнюю неделю. Архивные данные за месяц целиком и за предыдущие месяцы, начиная с января 2011 года, Вы можете получить, выбрав интересующий диапазон дат из раскрывающегося списка и нажав кнопку "Ввод!".


*Определитесь, кто Вы:
робот инопланетянин человек

Внимание! Время в таблицах - всемирное. Для получения местного времени необходимо прибавить поправку, которая равна 2 ч.

Смотрите также архив погоды в соседних городах и на ближайших метеорологических станциях:

Погода в Ротмистровке (Черкасская область, Украина) (59 км)
Погода в Умани (Черкасская область, Украина) (60 км)
Погода в Жашкове (Черкасская область, Украина) (61 км)
Погода в Новомиргороде (Кировоградская область, Украина) (63 км)
Погода в Мироновке (Киевская область, Украина) (66 км)
Погода в Каневе (Черкасская область, Украина) (85 км)
Погода в Черкассах (Черкасская область, Украина) (92 км)
Погода в Белой Церкви (Киевская область, Украина) (93 км)
Погода в Помошной (Кировоградская область, Украина) (101 км)
Погода в Золотоноше (Черкасская область, Украина) (106 км)

Пояснения к столбцам:

Ветер - указаны скорость ветра в м/с - средняя за 10 мин, порывы в срок и между сроками (в фигурных скобках) и направление, откуда дует ветер: С - северный, СВ - северо-восточный, В - восточный, ЮВ - юго-восточный, Ю - южный, ЮЗ - юго-западный, З - западный, СЗ - северо-западный.
Видимость - горизонтальная дальность видимости в метрах или километрах. При видимости от 1 до 10 км при отсутствии осадков обычно наблюдается дымка, при ухудшении видимости до 1 км и менее - туман. В сухую погоду видимость может ухудшаться дымом, пылью или мглою.
Явления - указаны атмосферные явления, наблюдавшиеся в срок или в последний час перед сроком; фигурными скобками обозначены явления, наблюдавшиеся между сроками (за 1-3 часа до срока); квадратными скобками обозначены град или гололедные отложения с указанием их диаметра в мм.
Облачность - указаны через наклонную черту общая и нижняя облачность в баллах и высота нижней границы облаков в метрах; квадратными скобками обозначены формы облаков: Ci - перистые, Cs - перисто-слоистые, Cc - перисто-кучевые, Ac - высококучевые, As - высокослоистые, Sc - слоисто-кучевые, Ns - слоисто-дождевые, Cu - кучевые, Cb - кучево-дождевые. Подробнее классификацию облаков см. в Атласе облаков (PDF).
T - Температура воздуха - температура, измеренная на высоте 2 м над землей.
Td - Температура точки росы - температура, при понижении до которой содержащийся в воздухе водяной пар достигнет насыщения.
f - Относительная влажность воздуха - влажноcть воздуха, измеренная на высоте 2 м над землей.
Te - Эффективная температура - температура, которую ощущает одетый по сезону человек в тени. Характеристика душности погоды. При расчете учитывается влияние влажности воздуха и скорости ветра на теплоощущения человека.
Tes - Эффективная температура на солнце - температура, которую ощущает человек, с поправкой на солнечный нагрев. Характеристика знойности погоды. Зависит от высоты солнца над горизонтом, облачности и скорости ветра. Ночью, в пасмурную погоду, а также при ветре 12 м/с и более поправка равна нулю.
P - Атмосферное давление - приведенное к уровню моря атмосферное давление.
Po - Атмосферное давление - измеренное на уровне метеостанции атмосферное давление.
Tmin - Минимальная температура - минимум температуры воздуха на высоте 2 м над землей.
Tmax - Максимальная температура - максимум температуры воздуха на высоте 2 м над землей.
R - Количество осадков - Количество выпавших осадков за период времени, мм. При наведении курсора мыши на число - период времени, за который выпало указанное количество осадков.
R24 - Количество осадков - Количество выпавших осадков за 24 часа, мм.
S - Снежный покров - Высота снежного покрова, см. При наведении курсора мыши на число - состояние снежного покрова и степень покрытия местности в баллах.